Location: Cheching
(60.0667°N, 164.2167°W)
Time: 20:38:09
(UTC+00:00)

LilacSat-2 - Pass Details

Date: 17 January 2021
Orbit: 512 x 534 km, 97.5° (Epoch: 07 March)

Event Time Altitude Azimuth Distance (km) Brightness Sun altitude
Rises 18:15:53 0° 12° (NNE) 2,679 ? -9.6°
Reaches altitude 10° 18:18:10 10° 1° (N) 1,789 ? -9.3°
Maximum altitude 18:21:32 29° 301° (WNW) 994 ? -9.0°
Drops below altitude 10° 18:24:54 10° 240° (WSW) 1,788 ? -8.6°
Sets 18:27:11 0° 229° (SW) 2,677 ? -8.3°
